AO-07 1 07530U 74089B 22097.87728311 -.00000028 00000-0 11420-3 0 9992 2 07530 101.8995 77.5396 0012201 175.5837 252.4210 12.53653929168869 UO-11 1 14781U 84021B 22097.56702038 .00001157 00000-0 14665-3 0 9996 2 14781 97.6146 88.2528 0008165 184.1164 175.9984 14.83532861 29537 LO-19 1 20442U 90005G 22097.65174764 .00000192 00000-0 86730-4 0 9996 2 20442 98.7865 61.4612 0012167 21.9906 338.1797 14.33038194683024 HUBBLE 1 20580U 90037B 22097.21363995 .00003117 00000-0 17497-3 0 9995 2 20580 28.4698 280.7387 0002626 354.5748 170.8538 15.10239957555437 MET-2/21 1 22782U 93055A 22097.43574265 .00000061 00000-0 41391-4 0 9998 2 22782 82.5476 70.5978 0022127 183.5670 287.6822 13.83850296444186 AO-27 1 22825U 93061C 22097.57351617 .00000088 00000-0 51908-4 0 9996 2 22825 98.8953 127.0852 0007411 256.1501 103.8856 14.30155810488022 IO-26 1 22826U 93061D 22097.54383917 .00000107 00000-0 58784-4 0 9993 2 22826 98.8896 126.9389 0008044 241.4324 118.6049 14.30499157488275 FO-29 1 24278U 96046B 22097.67061919 .00000000 00000-0 32734-4 0 9990 2 24278 98.5251 131.0697 0351315 106.9214 257.0747 13.53112742266288 NOAA-15 1 25338U 98030A 22097.83890538 .00000144 00000-0 78278-4 0 9990 2 25338 98.6523 128.2722 0011221 139.4170 220.7849 14.26105654243209 GO-32 1 25397U 98043D 22097.58986456 .00000094 00000-0 60987-4 0 9998 2 25397 98.8108 47.8986 0000938 8.3426 351.7767 14.23741731233565 ISS 1 25544U 98067A 22097.92354400 .00009379 00000-0 17254-3 0 9997 2 25544 51.6446 324.6037 0004354 359.3754 125.1351 15.49925213334284 NO-44 1 26931U 01043C 22097.70614998 .00000172 00000-0 97456-4 0 9998 2 26931 67.0507 241.0024 0007771 273.4622 86.5590 14.30679940 71441 SO-50 1 27607U 02058C 22097.58926495 .00000874 00000-0 14170-3 0 9990 2 27607 64.5544 158.7347 0073950 308.4494 50.9986 14.75991765 37914 CO-55 1 27844U 03031E 22097.59224218 .00000318 00000-0 16228-3 0 9999 2 27844 98.6815 106.3424 0008881 311.9330 48.1090 14.22408993973798 CO-57 1 27848U 03031J 22097.46293827 .00000269 00000-0 14173-3 0 9993 2 27848 98.6863 106.7481 0008979 327.6500 32.4126 14.21971727973596 RS-22 1 27939U 03042A 22097.74974926 .00001269 00000-0 23377-3 0 9990 2 27939 98.1797 238.5373 0014101 73.6649 286.6107 14.67228171990676 NOAA-18 1 28654U 05018A 22097.80671432 .00000175 00000-0 11839-3 0 9998 2 28654 98.9540 168.2856 0014689 167.5090 192.6448 14.12709385870092 CO-58 1 28895U 05043F 22097.31458073 .00001255 00000-0 24707-3 0 9991 2 28895 98.0942 229.8433 0016676 9.8146 350.3379 14.64186742877006 Falconsat-3 1 30776U 07006E 22097.45084623 .00040287 00000-0 74015-3 0 9999 2 30776 35.4337 3.6402 0001872 305.1571 54.8984 15.48203860838559 CO-65 1 32785U 08021C 22097.62179774 .00002784 00000-0 29909-3 0 9992 2 32785 97.6512 70.7589 0014431 106.5761 253.7043 14.89264296756016 AAUSAT2 1 32788U 08021F 22097.85955208 .00006732 00000-0 59226-3 0 9996 2 32788 97.5319 85.7247 0011596 11.9053 348.2441 14.96776504757978 DO-64 1 32789U 08021G 22097.57888942 .00014999 00000-0 87822-3 0 9993 2 32789 97.3466 126.5102 0010748 199.2942 160.7883 15.11863950761218 CO-66 1 32791U 08021J 22097.84416923 .00003800 00000-0 37766-3 0 9993 2 32791 97.6067 76.5490 0014571 68.6086 291.6686 14.92195308756741 RS-30 1 32953U 08025A 22097.71498979 .00000021 00000-0 80971-4 0 9993 2 32953 82.5029 227.9047 0019944 57.6203 302.6800 12.43108458629542 PRISM 1 33493U 09002B 22097.67594082 .00007493 00000-0 62205-3 0 9995 2 33493 98.2256 80.2606 0014132 36.2995 323.9182 14.99010779718385 NOAA-19 1 33591U 09005A 22097.79999299 .00000162 00000-0 11248-3 0 9996 2 33591 99.1566 130.4251 0014284 30.4545 329.7452 14.12545851678475 SRMSAT 1 37841U 11058D 22097.33769638 .00000415 00000-0 82919-4 0 9996 2 37841 19.9731 324.7835 0011828 282.4520 233.0068 14.10737349541180 HRBE 1 37855U 11061F 22097.46952402 .00009753 00000-0 44570-3 0 9996 2 37855 101.7040 179.1916 0158799 274.6237 83.6856 15.10394556570510 RS-40 1 38735U 12041C 22097.88251181 .00000030 00000-0 14356-3 0 9993 2 38735 82.4749 309.5111 0017256 161.7834 198.3854 12.42585168439751 ZACUBE-1 1 39417U 13066B 22097.48283706 .00002706 00000-0 33799-3 0 9997 2 39417 97.6306 72.2272 0056426 277.6191 81.8616 14.82050797452616 Delfi-N3xt 1 39428U 13066N 22097.54933599 .00002861 00000-0 44880-3 0 9993 2 39428 97.8099 35.0005 0119110 143.8650 217.0680 14.68708281448301 GOMX-1 1 39430U 13066Q 22097.73120859 .00002083 00000-0 38140-3 0 9992 2 39430 97.8135 8.9647 0148169 267.9122 90.5102 14.60001533445975 LO-74 1 39440U 13066AA 22097.52001471 .00003181 00000-0 43839-3 0 9999 2 39440 97.7191 58.1024 0079303 2.8542 357.3105 14.76736354449815 AO-73 1 39444U 13066AE 22097.48225341 .00003217 00000-0 39123-3 0 9993 2 39444 97.6190 74.6247 0055298 265.9560 93.5332 14.83068053451003 SPROUT 1 39770U 14029E 22097.55492281 .00009801 00000-0 10216-2 0 9998 2 39770 97.9320 214.1450 0007641 326.2078 33.8644 14.89966877427108 DTUSAT-2 1 40030U 14033W 22097.78720868 .00002728 00000-0 29147-3 0 9999 2 40030 97.9336 30.3067 0010239 289.8768 70.1345 14.89599555423636 EO-80 1 40032U 14033Y 22097.69079881 .00003590 00000-0 38188-3 0 9996 2 40032 97.9341 30.2223 0010157 291.1313 68.8818 14.89566955423602 HODOYOSHI-1 1 40299U 14070B 22097.75045219 .00007312 00000-0 28529-3 0 9991 2 40299 97.2489 167.9772 0013303 34.8713 86.3151 15.26129384412271 FIREBIRD FU3 1 40377U 15003B 22097.85827437 .00019851 00000-0 63658-3 0 9999 2 40377 99.1109 307.1526 0105625 263.8059 95.1134 15.27066526397640 FIREBIRD FU4 1 40378U 15003C 22097.56038373 .00019285 00000-0 61728-3 0 9998 2 40378 99.1113 306.9842 0105556 264.5110 94.4076 15.27137633397592 GRIFEX 1 40379U 15003D 22097.79100069 .00012428 00000-0 45989-3 0 9999 2 40379 99.1192 293.9093 0119139 303.9855 55.0101 15.21383815396881 XW-2A 1 40903U 15049E 22097.74107902 .00024875 00000-0 43862-3 0 9997 2 40903 97.1903 156.2926 0010976 28.6116 119.8314 15.50328565368290 XW-2C 1 40906U 15049H 22097.70512477 .00007771 00000-0 38237-3 0 9999 2 40906 97.4941 101.7246 0012404 242.2330 234.5609 15.18215242362183 XW-2D 1 40907U 15049J 22097.76631733 .00008878 00000-0 42987-3 0 9999 2 40907 97.4935 101.7129 0011702 236.2939 298.5457 15.18738745362230 LILACSAT-2 1 40908U 15049K 22097.71750968 .00004666 00000-0 25080-3 0 9993 2 40908 97.5168 99.0276 0013658 260.7012 214.8030 15.15302618361777 XW-2E 1 40909U 15049L 22097.78164063 .00013209 00000-0 57974-3 0 9996 2 40909 97.4679 106.1191 0011414 215.1148 325.1570 15.22019971362650 XW-2F 1 40910U 15049M 22097.73903182 .00013246 00000-0 58996-3 0 9992 2 40910 97.4755 105.1947 0012312 215.6384 259.5440 15.21505777362424 XW-2B 1 40911U 15049N 22097.78644144 .00008783 00000-0 42654-3 0 9992 2 40911 97.4918 102.3550 0011706 238.1619 296.5181 15.18638224362122 DCBB 1 40912U 15049P 22097.74992514 .00014754 00000-0 60336-3 0 9998 2 40912 97.4409 109.5652 0013335 181.7873 294.1635 15.24365825362977 TW-1A 1 40928U 15051D 22097.79028003 .00042126 00000-0 64942-3 0 9997 2 40928 97.0479 121.3215 0005958 289.0932 185.5422 15.54035889367243 IO-86 1 40931U 15052B 22096.99900425 .00001200 00000-0 77715-4 0 9991 2 40931 6.0008 318.7754 0013393 240.8689 119.0218 14.76765349352761 ATHENOXAT-1 1 41168U 15077C 22097.66457278 .00020221 00000-0 90040-3 0 9998 2 41168 14.9866 254.3486 0012370 328.6817 21.4029 15.18937689349513 ChubuSat-2 1 41338U 16012B 22097.72069239 .00002698 00000-0 19920-3 0 9996 2 41338 31.0022 114.1656 0013623 171.7595 188.3266 15.01059644336846 ChubuSat-3 1 41339U 16012C 22097.71776665 .00002838 00000-0 20934-3 0 9997 2 41339 31.0102 111.1510 0013204 179.7598 180.3041 15.01166008336844 Horyu-4 1 41340U 16012D 22097.64719399 .00004593 00000-0 32836-3 0 9996 2 41340 31.0045 91.1450 0013807 216.4711 143.4985 15.02774862337063 e-st@r-II 1 41459U 16025D 22097.71182703 .00025543 00000-0 11387-2 0 9997 2 41459 98.1782 257.7430 0150864 149.2504 211.7658 15.11676802326803 AAUSAT4 1 41460U 16025E 22097.68723843 .00035611 00000-0 14446-2 0 9997 2 41460 98.1742 263.3209 0133155 127.6997 233.6362 15.16667923327207 LO-87 1 41557U 16033B 22097.79375396 .00017050 00000-0 54091-3 0 9999 2 41557 97.3846 195.4913 0010395 267.5516 208.2869 15.32701528326553 NuSat2 1 41558U 16033C 22097.84707881 .00016029 00000-0 47716-3 0 9995 2 41558 97.4027 200.8541 0009682 255.7331 220.1357 15.34747593326813 Lapan A3 1 41603U 16040E 22097.82354730 .00002147 00000-0 10118-3 0 9995 2 41603 97.2149 137.9033 0014722 54.0519 32.6345 15.20441626321307 Pratham 1 41783U 16059A 22097.58701835 .00000590 00000-0 12231-3 0 9997 2 41783 97.9227 141.9507 0034249 39.8713 320.4996 14.63280358295268 TY-1 1 41844U 16066D 22097.78282608 .00016570 00000-0 59802-3 0 9997 2 41844 97.3938 110.1895 0013968 170.8622 2.4098 15.28486207300807 CAS-2T 1 41847U 16066G 22097.60607256 .00001325 00000-0 20702-3 0 9990 2 41847 98.5577 162.3316 0365199 61.8666 301.8920 14.38470243284165 EO-88 1 42017U 17008BX 22097.43552390 .00017703 00000-0 57279-3 0 9992 2 42017 97.2755 164.6831 0006601 135.3650 224.8125 15.32089562286197 CAS-4B 1 42759U 17034B 22097.74413942 .00006746 00000-0 40615-3 0 9998 2 42759 43.0194 2.2771 0008643 213.1237 249.2880 15.11288493265658 CAS-4A 1 42761U 17034D 22097.83783231 .00006766 00000-0 40631-3 0 9992 2 42761 43.0193 0.5980 0008949 216.9452 177.7507 15.11379816265675 NIUSat 1 42766U 17036B 22097.82443618 .00011059 00000-0 44527-3 0 9999 2 42766 97.2113 138.2033 0013457 210.1613 149.8851 15.24950504266032 Aalto 1 1 42775U 17036L 22097.63780529 .00009107 00000-0 37239-3 0 9996 2 42775 97.2071 138.0494 0012115 209.6280 150.4273 15.24498290265985 URSA MAIOR 1 42776U 17036M 22097.83874360 .00009820 00000-0 39602-3 0 9994 2 42776 97.2083 138.9068 0011950 207.5648 152.4958 15.24945224266040 Max Valier Sat 1 42778U 17036P 22097.58620623 .00010511 00000-0 41501-3 0 9999 2 42778 97.2150 141.1519 0010631 208.1543 151.9122 15.25650632266099 Pegasus 1 42784U 17036V 22097.58746026 .00014439 00000-0 54379-3 0 9992 2 42784 97.2086 141.8645 0009995 209.9537 150.1132 15.27151937266193 NUDATSat 1 42787U 17036Y 22097.76794518 .00022972 00000-0 77373-3 0 9994 2 42787 97.2122 145.6652 0009358 196.1252 163.9689 15.30719483266279 SUCHAI 1 1 42788U 17036Z 22097.65619908 .00017191 00000-0 62051-3 0 9996 2 42788 97.2094 143.3893 0009624 204.2830 155.7957 15.28519183266368 SKCUBE 1 42789U 17036AA 22097.36097654 .00012581 00000-0 46278-3 0 9994 2 42789 97.2090 142.6413 0009544 206.2793 153.7964 15.27966233266217 VZLUSAT 1 1 42790U 17036AB 22097.37838678 .00017806 00000-0 60252-3 0 9999 2 42790 97.2119 145.2646 0009030 197.8722 162.2203 15.30623379266367 VENTA 1 1 42791U 17036AC 22097.37161644 .00011297 00000-0 42044-3 0 9999 2 42791 97.2091 142.5891 0009201 206.6693 153.4075 15.27610052266207 Robusta 1B 1 42792U 17036AD 22097.60006286 .00016987 00000-0 61545-3 0 9994 2 42792 97.2087 143.3875 0009143 205.0988 154.9809 15.28401832266294 D-SAT 1 42794U 17036AF 22097.47998332 .00003801 00000-0 32692-3 0 9995 2 42794 97.4541 106.6471 0122866 323.3909 35.8960 14.92278823260899 TechnoSat 1 42829U 17042E 22097.85430729 .00001410 00000-0 14538-3 0 9997 2 42829 97.4307 316.0832 0012631 240.7852 119.2105 14.91650573257566 QIKCOM-1 1 42983U 98067NF 22097.64190843 .00088582 00000-0 42192-3 0 9993 2 42983 51.6330 193.6025 0004986 357.3383 2.7592 15.82103832253672 AO-91 1 43017U 17073E 22097.70717580 .00006386 00000-0 48213-3 0 9992 2 43017 97.6824 354.7866 0252304 59.6037 302.9854 14.80734119236648 PICSAT 1 43132U 18004X 22097.68187859 .00017968 00000-0 63470-3 0 9992 2 43132 97.3753 174.5442 0007153 242.5643 117.4870 15.29241171235582 AO-92 1 43137U 18004AC 22097.46426368 .00012971 00000-0 47970-3 0 9990 2 43137 97.3721 173.3261 0006812 247.8485 112.2031 15.27809147235506 TianYi 2 1 43155U 18008A 22097.76102303 .00010478 00000-0 57416-3 0 9993 2 43155 97.3610 158.4570 0017179 35.4991 100.7431 15.14253363232570 Zhou Enlai 1 43156U 18008B 22097.76547781 .00011160 00000-0 61693-3 0 9998 2 43156 97.3654 158.3193 0014402 37.5688 103.5681 15.13962537232501 TianYi 6 1 43158U 18008D 22097.76776817 .00009180 00000-0 52048-3 0 9997 2 43158 97.3599 156.4370 0013479 37.6285 87.6405 15.13118007232415 S-Net D 1 43186U 18014G 22097.61215570 .00002878 00000-0 25102-3 0 9991 2 43186 97.6618 4.7042 0011310 167.4517 192.6988 14.97590108228318 S-Net B 1 43187U 18014H 22097.74584950 .00002849 00000-0 24851-3 0 9995 2 43187 97.6615 4.7902 0011307 166.8126 193.3394 14.97589648228334 S-Net A 1 43188U 18014J 22097.27838603 .00002638 00000-0 23050-3 0 9997 2 43188 97.6618 4.3911 0011273 168.6318 191.5161 14.97585577228260 S-Net C 1 43189U 18014K 22097.54626131 .00002930 00000-0 25546-3 0 9996 2 43189 97.6615 4.5839 0011310 167.3340 192.8168 14.97586416226859 FMN 1 1 43192U 18015A 22097.83808797 .00034121 00000-0 10271-2 0 9998 2 43192 97.5246 241.2998 0011715 278.3294 222.2093 15.34214824232606 Shaonian Xing 1 43199U 18015H 22097.82360900 .00022197 00000-0 72512-3 0 9990 2 43199 97.5014 237.0612 0013289 290.8113 209.8795 15.31675717232620 SurfSat 1 43614U 18070B 22097.67373036 .00044611 00000-0 80412-3 0 9993 2 43614 93.0267 68.8248 0007690 306.8931 53.1623 15.49600594200088 CP-7 DAVE 1 43615U 18070C 22097.44558873 .00040771 00000-0 75391-3 0 9996 2 43615 93.0268 68.6241 0008191 309.2073 50.8458 15.48880357200022 ELFIN-B 1 43616U 18070D 22097.45273849 .00074451 00000-0 10384-2 0 9997 2 43616 93.0189 69.4385 0005816 296.8464 63.2205 15.56637821200279 ELFIN-A 1 43617U 18070E 22097.66108803 .00076985 00000-0 10270-2 0 9996 2 43617 93.0261 70.7282 0004708 284.2567 75.8174 15.57835141200344 CubeBel-1 1 43666U 18083E 22097.82432966 .00012869 00000-0 56866-3 0 9995 2 43666 97.4283 127.3564 0012793 213.2804 322.0735 15.21776988190736 Changshagaoxin 1 43669U 18083H 22097.78953280 .00011795 00000-0 54475-3 0 9991 2 43669 97.4222 123.5128 0009305 207.4028 267.8540 15.20314979190562 Ten-Koh 1 43677U 18084G 22097.61081917 .00001840 00000-0 19220-3 0 9991 2 43677 97.9517 227.0781 0016735 141.7988 218.4419 14.90865385187121 PO-101 1 43678U 18084H 22097.83448678 .00001237 00000-0 12772-3 0 9992 2 43678 97.9574 230.3295 0010415 151.9548 208.2234 14.92014700187329 IRVINE 01 1 43693U 18088D 22097.22535771 .00034511 00000-0 10836-2 0 9996 2 43693 85.0344 358.9492 0014883 28.4059 331.7997 15.32752541189296 QO-100 1 43700U 18090A 22097.61455078 .00000143 00000-0 00000 0 0 9995 2 43700 0.0152 236.6169 0002350 166.7893 39.5192 1.00275616 12568 Reaktor Hello World 1 43743U 18096AA 22097.44792436 .00013924 00000-0 45174-3 0 9997 2 43743 97.3550 177.7089 0014548 315.3227 44.6841 15.31976489187080 MinXSS-2 1 43758U 18099A 22097.66968042 .00004903 00000-0 43131-3 0 9996 2 43758 97.6292 167.2988 0016669 139.3678 220.8791 14.96865108182514 AO-95 1 43770U 18099N 22097.43444524 .00002695 00000-0 24474-3 0 9994 2 43770 97.6262 165.6287 0015000 150.0201 210.1883 14.96009350182398 RANGE-B 1 43772U 18099Q 22097.45605420 .00004118 00000-0 36655-3 0 9998 2 43772 97.6360 167.1650 0014978 138.0019 222.2354 14.96517905182416 RANGE-A 1 43773U 18099R 22097.80812199 .00003017 00000-0 27535-3 0 9995 2 43773 97.6196 164.9791 0014712 135.2631 224.9779 14.95727212182435 MOVE-II 1 43780U 18099Y 22097.64944479 .00005578 00000-0 48821-3 0 9997 2 43780 97.6284 166.8020 0014101 146.2483 213.9639 14.97030407182467 SNUSat 2 1 43782U 18099AA 22097.82452838 .00002749 00000-0 24841-3 0 9995 2 43782 97.6270 166.4497 0013629 133.6498 226.5856 14.96213458182478 SnugLite 1 43784U 18099AC 22097.73755781 .00004191 00000-0 37398-3 0 9994 2 43784 97.6229 166.0188 0016163 141.4330 218.8050 14.96388302182487 ITASat 1 1 43786U 18099AE 22097.50285490 .00002625 00000-0 23726-3 0 9996 2 43786 97.6288 166.5725 0015727 142.9401 217.2909 14.96216299182443 EAGLET 1 1 43790U 18099AJ 22097.67534213 .00003215 00000-0 28777-3 0 9996 2 43790 97.6282 167.2571 0014438 143.8787 216.3413 14.96459633182209 ESEO 1 43792U 18099AL 22097.78671894 .00001280 00000-0 11890-3 0 9995 2 43792 97.6237 166.6794 0014189 142.1664 218.0557 14.96025575182268 CSIM 1 43793U 18099AM 22097.45434019 .00005042 00000-0 43452-3 0 9995 2 43793 97.6289 167.4237 0013904 140.1900 220.0345 14.97686548182253 Astrocast 0.1 1 43798U 18099AS 22097.42921513 .00002516 00000-0 22331-3 0 9993 2 43798 97.6298 167.3878 0013394 124.8533 235.3951 14.96985141182489 JO-97 1 43803U 18099AX 22097.47506259 .00004774 00000-0 42286-3 0 9990 2 43803 97.6256 166.2859 0016172 141.3064 218.9319 14.96616019182454 Suomi 100 1 43804U 18099AY 22097.82318965 .00003121 00000-0 27872-3 0 9994 2 43804 97.6250 166.5608 0015997 140.5017 219.7374 14.96550751182514 Al Farabi 2 1 43805U 18099AZ 22097.63339774 .00005448 00000-0 47736-3 0 9990 2 43805 97.6275 166.7855 0015723 139.5645 220.6743 14.96982812182507 CHOMPTT 1 43855U 18104G 22097.46820134 .00011375 00000-0 43668-3 0 9994 2 43855 85.0322 98.4298 0018220 134.4488 225.8250 15.26165759183892 ISAT 1 43879U 18111D 22097.31330547 .00003000 00000-0 26211-3 0 9997 2 43879 97.6699 4.2188 0012078 192.2051 167.8880 14.97481818179028 UWE-4 1 43880U 18111E 22097.72572010 .00003489 00000-0 30263-3 0 9990 2 43880 97.6715 5.2794 0011563 192.9342 167.1585 14.97671077177112 Sparrow 1 43881U 18111F 22097.54875543 .00004678 00000-0 40279-3 0 9997 2 43881 97.6728 5.3055 0012031 187.3885 172.7162 14.97776215179091 Lume 1 1 43908U 18111AJ 22097.59854866 .00013349 00000-0 47625-3 0 9994 2 43908 97.2004 347.6714 0018015 331.9416 28.0851 15.28843594182567 FO-98 1 43933U 19003B 22097.80633670 .00480871 00000-0 53985-2 0 9998 2 43933 97.1393 136.0541 0004708 93.0362 267.1435 15.61057337179269 FO-99 1 43937U 19003F 22097.59048661 .00016396 00000-0 58337-3 0 9992 2 43937 97.1396 133.7582 0022567 51.3914 308.9343 15.28794821179146 MYSat 1 1 44045U 18092F 22097.61858496 .00047959 00000-0 88900-3 0 9996 2 44045 51.6349 64.5277 0007775 183.4219 176.6717 15.48464792176876 AstroCast 0.2 1 44083U 19018F 22097.67670146 .00013017 00000-0 51664-3 0 9992 2 44083 97.3299 157.9464 0012196 26.4100 333.7757 15.25409208167698 AISTechSat 3 1 44103U 19018AB 22097.38365112 .00008889 00000-0 34520-3 0 9990 2 44103 97.3162 158.0756 0012970 34.3831 325.8244 15.26231292167808 AISat 1 1 44104U 19018AC 22097.49807597 .00010087 00000-0 29258-3 0 9996 2 44104 97.3966 180.4197 0054058 28.7986 331.6222 15.34244216168711 Prox-1 1 44339U 19036A 22097.19619111 .00004674 00000-0 10263-2 0 9996 2 44339 24.0004 283.1574 0010469 155.9034 204.1949 14.54535369147963 Oculus-ASR 1 44348U 19036K 22097.01652970 .00048129 -58747-5 51353-3 0 9993 2 44348 28.5094 322.1455 0268856 234.6735 122.8447 15.28543227153578 Armadillo 1 44352U 19036P 22097.14231361 .00096724 -43114-5 75065-3 0 9991 2 44352 28.5249 264.4128 0195380 326.1680 32.6590 15.49070767154112 NO-104 1 44354U 19036R 22097.27764256 .00045707 -59677-5 46603-3 0 9993 2 44354 28.5286 308.3838 0260750 254.0437 103.1287 15.30974958153733 NO-103 1 44355U 19036S 22097.49656322 .00736949 20348-3 16407-2 0 9995 2 44355 28.5153 179.9449 0082680 102.5869 258.4004 15.90638844155018 Move-IIb 1 44398U 19038N 22097.54841951 .00019180 00000-0 97338-3 0 9998 2 44398 97.6231 66.3807 0023429 20.1759 340.0387 15.16720984152288 SONATE 1 44400U 19038Q 22097.61920245 .00008425 00000-0 46606-3 0 9996 2 44400 97.6287 65.8804 0024928 21.6838 338.5440 15.13850890152215 BeeSat 9 1 44412U 19038AC 22097.44104913 .00010922 00000-0 57645-3 0 9996 2 44412 97.6304 66.3073 0021800 25.8368 334.3947 15.15509174151934 JAISAT-1 1 44419U 19038F 22097.44907798 .00012731 00000-0 66246-3 0 9992 2 44419 97.6306 67.0971 0020590 23.7503 336.4675 15.15991300152298 LightSail-2 1 44420U 19036AC 22097.54767601 .00084034 00000-0 13435-1 0 9995 2 44420 24.0007 234.0426 0011174 263.3738 96.5486 14.70265505146606 Taurus 1 1 44530U 19059C 22097.81607304 .00003206 00000-0 89811-3 0 9990 2 44530 98.5429 195.6838 0012388 337.6657 22.3987 14.46721286135634 Duchifat 3 1 44854U 19089C 22097.53735721 .00005674 00000-0 44758-3 0 9998 2 44854 36.9642 160.5840 0007788 357.6416 106.0932 15.00496437127272 OPS-SAT 1 44878U 19092F 22096.47639001 .00008698 00000-0 42210-3 0 9994 2 44878 97.4801 281.1134 0012213 227.3609 132.6597 15.18660517127261 TO-108 1 44881U 19093C 22097.80494813 .00001013 00000-0 13531-3 0 9995 2 44881 97.8952 178.0246 0016317 59.1937 301.0872 14.81628708124314 FloripaSat 1 1 44885U 19093G 22097.76864975 .00003254 00000-0 40779-3 0 9997 2 44885 97.8985 179.0949 0015729 66.2281 294.0554 14.82831601124375 RS-44 1 44909U 19096E 22097.59304677 .00000032 00000-0 74740-4 0 9993 2 44909 82.5167 277.3568 0218264 125.2882 236.8850 12.79712946106441 Phoenix 1 45258U 98067RB 22097.24043342 .00132060 00000-0 80370-3 0 9999 2 45258 51.6334 285.7031 0006639 262.8161 97.2085 15.76514490121146 BY70-2 1 45857U 20042B 22097.74105517 .00010495 00000-0 14340-2 0 9990 2 45857 97.9576 175.3097 0009389 353.0345 7.0712 14.78731999 95007 UPMSat 2 1 46276U 20061E 22097.43962617 .00004461 00000-0 22558-3 0 9992 2 46276 97.3962 169.8969 0002863 79.7901 280.3655 15.17539529 88106 AmicalSat 1 46287U 20061R 22097.68091239 .00007952 00000-0 46864-3 0 9998 2 46287 97.4509 169.1338 0003506 141.9874 218.1604 15.11844702 87776 SALSAT 1 46495U 20068K 22097.52270525 .00004013 00000-0 29320-3 0 9999 2 46495 97.7230 38.8477 0017171 153.7927 206.4171 15.04111874 83527 BY70-3 1 46839U 20079N 22097.89865926 .00026115 00000-0 68334-3 0 9993 2 46839 97.2040 171.0634 0005791 214.6141 262.3845 15.38694701 79388 SPOC 1 46921U 98067RR 22096.92717439 .00115071 00000-0 82865-3 0 9990 2 46921 51.6356 300.2455 0003209 212.4706 147.6095 15.72712249 80678 Bobcat-1 1 46922U 98067RS 22097.73641852 .03902500 11932-4 15321-2 0 9992 2 46922 51.6265 279.2621 0012118 282.5828 77.3836 16.22865684 80973 Neutron-1 1 46923U 98067RT 22097.02959435 .00125677 00000-0 90749-3 0 9991 2 46923 51.6363 300.1891 0003404 214.4752 145.6026 15.72607362 80717 CAPE 3 1 47309U 21002A 22097.75908357 .00013324 00000-0 56659-3 0 9999 2 47309 60.6832 270.1854 0016415 240.0173 119.9285 15.23247840 67678 AO-109 1 47311U 21002C 22097.57740099 .00011457 00000-0 47962-3 0 9991 2 47311 60.6857 268.7940 0013185 229.5958 130.3980 15.23942974 67658 MiTEE 1 1 47314U 21002F 22097.56292754 .00024779 00000-0 92065-3 0 9998 2 47314 60.6833 264.0394 0014228 211.3844 148.6397 15.27423192 67754 ExoCube 2 1 47319U 21002L 22097.75323199 .00012132 00000-0 51323-3 0 9994 2 47319 60.6838 269.0298 0013509 235.7120 124.2689 15.23535999 67636 UVSQ-SAT 1 47438U 21006AB 22097.68498669 .00008102 00000-0 43992-3 0 9992 2 47438 97.4450 158.1685 0013184 154.9399 205.2476 15.14711498 66568 YUSAT 1 1 47439U 21006AC 22097.47328290 .00009329 00000-0 50241-3 0 9999 2 47439 97.4451 158.0130 0012979 156.0279 204.1560 15.14962583 66537 SOMP 2b 1 47445U 21006AJ 22097.73619696 .00007491 00000-0 40987-3 0 9992 2 47445 97.4415 157.9408 0012683 158.5419 201.6347 15.14471908 66569 IDEASSat 1 47458U 21006AX 22097.44613741 .00007089 00000-0 39009-3 0 9995 2 47458 97.4509 158.0874 0011805 157.6349 202.5400 15.14297926 66514 RSP-01 1 47925U 98067SB 22097.59669498 .00158515 00000-0 11586-2 0 9991 2 47925 51.6367 306.2324 0003292 226.1797 133.8929 15.72205027 60627 TAUSAT-1 1 47926U 98067SC 22097.26420654 .00265540 00000-0 11733-2 0 9996 2 47926 51.6312 301.6874 0007026 243.3634 116.6650 15.83143103 60647 Tsuru 1 47927U 98067SD 22097.82590414 .00116726 00000-0 97941-3 0 9998 2 47927 51.6364 307.0081 0002433 218.1838 141.8986 15.69053994 60631 STARS-EC 1 47928U 98067SE 22097.04494829 .00658455 19007-3 17287-2 0 9990 2 47928 51.6294 301.6900 0009061 246.2674 113.7384 15.94179885 60612 Maya-2 1 47929U 98067SF 22097.82371899 .00116618 00000-0 98275-3 0 9995 2 47929 51.6363 306.9925 0002297 221.4105 138.6719 15.68949577 60592 OPUSAT-II 1 47930U 98067SG 22097.81942994 .00903050 39014-3 18697-2 0 9999 2 47930 51.6247 295.5918 0009914 265.7073 94.2804 15.98520407 60781 GuaraniSat-1 1 47931U 98067SH 22097.68592028 .00118146 00000-0 98943-3 0 9991 2 47931 51.6374 307.5896 0002301 219.8694 140.2134 15.69095188 60615 CubeSX-Sirius-HSE 1 47951U 21022V 22097.85446138 .00006841 00000-0 46081-3 0 9993 2 47951 97.5375 358.8642 0022407 31.9988 32.5860 15.06796937 57361 CubeSX-HSE 1 47952U 21022W 22097.91072980 .00006686 00000-0 44983-3 0 9997 2 47952 97.5377 358.9335 0022638 30.9547 33.7074 15.06847796 57371 KSU-Cubesat 1 47954U 21022Y 22097.67359341 .00007451 00000-0 49874-3 0 9996 2 47954 97.5367 358.7749 0021847 31.0408 329.2105 15.07011908 57061 GRBAlpha 1 47959U 21022AD 22097.84340568 .00006623 00000-0 44550-3 0 9997 2 47959 97.5381 358.8971 0022514 31.9425 32.8172 15.06862368 56186 Orbicraft-Zorkiy 1 47960U 21022AE 22097.82546409 .00006471 00000-0 43421-3 0 9996 2 47960 97.5388 358.9842 0022255 31.0417 41.2001 15.06963666 56871 STECCO 1 47962U 21022AG 22097.79449231 .00011059 00000-0 70878-3 0 9993 2 47962 97.5357 359.4624 0016740 28.3796 42.0842 15.08578789 56214 DO-111 1 47963U 21022AH 22097.48243089 .00024203 00000-0 14439-2 0 9998 2 47963 97.5370 359.7706 0018708 23.9520 336.2576 15.10987820 56222 MO-110 1 47964U 21022AJ 22097.64378462 .00010022 00000-0 63636-3 0 9999 2 47964 97.5364 359.5165 0019780 24.8602 335.3575 15.08903404 56205 FEES 1 48082U 21022AL 22097.52411103 .00013391 00000-0 84717-3 0 9993 2 48082 97.5377 359.2689 0015941 23.5721 336.6235 15.09018547 55888 RamSat 1 48850U 98067SL 22097.87513957 .00061967 00000-0 72522-3 0 9990 2 48850 51.6398 315.5731 0004890 174.1021 186.0031 15.60945600 46275 MO-112 1 48868U 98067SP 22097.06539629 .00598831 15113-3 18638-2 0 9990 2 48868 51.6276 307.8135 0009580 241.6226 118.3814 15.90924578 45088 TUBIN 1 48900U 21059X 22097.90621543 .00006371 00000-0 36147-3 0 9999 2 48900 97.5417 227.8538 0009924 355.5500 118.0343 15.13264769 43245 IT-SPINS 1 49017U 21013G 22097.39257348 .00011941 00000-0 48307-3 0 9990 2 49017 51.5983 19.4140 0009445 176.9078 183.1959 15.25072791 42936 LEDSAT 1 49069U 21073D 22097.73337439 .00005405 00000-0 35193-3 0 9998 2 49069 97.5287 172.0395 0027933 173.6446 186.5143 15.08033989 35170 CUTE 1 49263U 21088D 22097.68228845 .00005961 00000-0 45253-3 0 9999 2 49263 97.5904 167.0280 0019995 304.5628 55.3710 15.02409357 28798 Binar-1 1 49272U 98067SR 22097.85883503 .00066199 00000-0 80930-3 0 9998 2 49272 51.6394 319.1949 0002316 89.0935 271.0324 15.59785640 28612 Maya-3 1 49273U 98067SS 22097.05061520 .00093666 00000-0 10241-2 0 9994 2 49273 51.6387 322.0482 0001642 115.3763 244.7401 15.62540157 28500 Maya-4 1 49274U 98067ST 22097.63517722 .00097292 00000-0 10657-2 0 9999 2 49274 51.6377 319.2015 0001395 115.0192 245.0947 15.62476289 28590 CUAVA-1 1 49275U 98067SU 22097.87142766 .00071732 00000-0 82318-3 0 9993 2 49275 51.6410 318.2805 0002293 119.1459 356.0967 15.61404308 28579 TeikyoSat 4 1 49396U 21102B 22097.67252960 .00000707 00000-0 60553-4 0 9991 2 49396 97.5422 157.9503 0020395 137.6412 222.6391 15.00475898 22438 Z-Sat 1 49399U 21102E 22097.83456453 .00002513 00000-0 19358-3 0 9998 2 49399 97.5470 158.5359 0025011 110.6265 249.7645 15.02288682 22489 KOSEN 1 1 49402U 21102H 22097.81086191 .00002547 00000-0 19135-3 0 9999 2 49402 97.5373 158.5947 0024487 100.1230 260.2759 15.03239481 22490 HO-113 1 50466U 21131B 22097.36233738 .00000271 00000-0 10340-3 0 9995 2 50466 98.5834 174.6438 0004459 16.5863 343.5470 14.38461158 14691 Tevel 1 50999U 22002R 22097.46819812 .00010185 00000-0 56814-3 0 9999 2 50999 97.4857 165.7193 0010224 307.7397 52.2908 15.13711776 12683 Grizu-263a 1 51025U 22002AT 22097.43874183 .00013396 00000-0 72641-3 0 9992 2 51025 97.5035 165.9519 0011940 311.3119 48.7085 15.14637359 12687 NO-116 1 51031U 22002AZ 22097.44443801 .00010164 00000-0 55758-3 0 9999 2 51031 97.4991 165.8955 0012103 312.3066 47.7139 15.14294564 12687 IRIS-A 1 51044U 22002BN 22097.64274073 .00005618 00000-0 32398-3 0 9991 2 51044 97.4879 165.8139 0008082 314.7929 45.2644 15.12742994 12705 DELFI-PQ 1 51074U 22002CU 22097.70224502 .00012978 00000-0 68260-3 0 9997 2 51074 97.5115 166.4566 0013300 344.3582 15.7238 15.15713962 12736 SO-115 1 51080U 22002DA 22097.44754177 .00008177 00000-0 43660-3 0 9994 2 51080 97.5117 166.1960 0013126 345.8903 14.1960 15.15313089 12695 SO-114 1 51081U 22002DB 22097.44814799 .00008321 00000-0 44418-3 0 9995 2 51081 97.5120 166.1868 0013352 345.6873 14.3979 15.15312028 12696 GASPACS 1 51439U 98067TB 22097.69070453 .00208819 00000-0 21061-2 0 9996 2 51439 51.6383 322.5628 0007034 260.2235 99.7965 15.64134249 11110 /EX
